QPF
0.00 0.01 0.01 0.01 0.00 0.00 0.00 0.01 0.01 0.00 0.00 0.00 0.00 0.00 0.00 0.00 0.00 0.00 0.01 0.03 0.03 0.03 0.03 0.05 0.04 0.03 0.03 0.03 0.04 0.07 0.08 0.07 0.06 0.07 0.06 0.06 0.07 0.08 0.12 0.18 0.21 0.23 0.26 0.21 0.17 0.10 0.08 0.06 0.05
0.01 0.01 0.01 0.00 0.00 0.00 0.00 0.01 0.00 0.00 0.00 0.00 0.00 0.00 0.00 0.00 0.00 0.00 0.01 0.02 0.02 0.02 0.01 0.02 0.03 0.03 0.03 0.03 0.03 0.03 0.05 0.06 0.06 0.06 0.06 0.05 0.06 0.07 0.10 0.15 0.15 0.18 0.15 0.12 0.12 0.09 0.06 0.03 0.03
0.01 0.01 0.01 0.00 0.00 0.00 0.00 0.01 0.00 0.00 0.00 0.00 0.00 0.00 0.00 0.00 0.00 0.00 0.01 0.01 0.01 0.01 0.01 0.01 0.02 0.02 0.02 0.02 0.02 0.02 0.03 0.04 0.04 0.04 0.06 0.05 0.05 0.09 0.14 0.15 0.15 0.12 0.09 0.08 0.08 0.06 0.05 0.03 0.03
0.01 0.01 0.00 0.00 0.00 0.00 0.00 0.00 0.00 0.00 0.00 0.00 0.00 0.00 0.00 0.00 0.00 0.00 0.01 0.01 0.01 0.01 0.01 0.01 0.02 0.01 0.01 0.01 0.02 0.02 0.02 0.02 0.02 0.03 0.05 0.06 0.09 0.10 0.12 0.12 0.11 0.09 0.08 0.06 0.04 0.04 0.04 0.03 0.02
0.00 0.00 0.00 0.00 0.00 0.00 0.00 0.00 0.00 0.00 0.00 0.00 0.00 0.00 0.01 0.01 0.00 0.00 0.00 0.00 0.01 0.01 0.00 0.01 0.01 0.01 0.01 0.01 0.01 0.01 0.02 0.02 0.02 0.03 0.04 0.05 0.06 0.07 0.08 0.08 0.07 0.06 0.05 0.04 0.04 0.05 0.04 0.02 0.02
0.00 0.00 0.00 0.00 0.00 0.00 0.00 0.00 0.00 0.00 0.00 0.00 0.00 0.00 0.02 0.02 0.00 0.00 0.00 0.00 0.00 0.01 0.00 0.01 0.01 0.01 0.01 0.01 0.01 0.01 0.01 0.02 0.03 0.03 0.03 0.03 0.04 0.05 0.05 0.04 0.04 0.04 0.04 0.04 0.05 0.05 0.04 0.03 0.03
0.00 0.00 0.00 0.00 0.01 0.01 0.00 0.00 0.00 0.00 0.00 0.00 0.00 0.00 0.03 0.03 0.01 0.00 0.00 0.00 0.00 0.01 0.01 0.00 0.01 0.01 0.01 0.01 0.01 0.01 0.01 0.01 0.02 0.02 0.02 0.03 0.04 0.04 0.04 0.04 0.03 0.03 0.03 0.03 0.03 0.04 0.04 0.04 0.04
0.01 0.00 0.00 0.00 0.00 0.01 0.00 0.00 0.00 0.00 0.00 0.00 0.00 0.00 0.01 0.01 0.01 0.01 0.01 0.01 0.00 0.01 0.01 0.00 0.00 0.01 0.01 0.01 0.02 0.02 0.01 0.01 0.02 0.02 0.02 0.03 0.03 0.03 0.03 0.03 0.03 0.03 0.03 0.03 0.03 0.03 0.03 0.04 0.04
0.00 0.01 0.01 0.00 0.00 0.00 0.00 0.00 0.00 0.00 0.00 0.00 0.00 0.00 0.00 0.00 0.01 0.01 0.01 0.01 0.01 0.01 0.01 0.00 0.00 0.00 0.00 0.01 0.01 0.02 0.01 0.02 0.03 0.03 0.03 0.02 0.01 0.01 0.01 0.02 0.03 0.04 0.04 0.04 0.04 0.04 0.04 0.04 0.03
0.00 0.01 0.01 0.00 0.00 0.00 0.00 0.00 0.00 0.00 0.00 0.00 0.00 0.00 0.00 0.00 0.00 0.01 0.00 0.01 0.01 0.01 0.01 0.01 0.01 0.01 0.01 0.01 0.01 0.01 0.02 0.02 0.02 0.01 0.02 0.01 0.01 0.01 0.01 0.02 0.04 0.05 0.04 0.03 0.05 0.05 0.04 0.03 0.01
0.00 0.00 0.00 0.00 0.00 0.00 0.00 0.00 0.00 0.00 0.00 0.00 0.00 0.00 0.00 0.00 0.00 0.00 0.00 0.00 0.00 0.01 0.01 0.02 0.02 0.02 0.02 0.02 0.02 0.02 0.02 0.02 0.01 0.02 0.02 0.02 0.01 0.01 0.01 0.01 0.03 0.03 0.03 0.02 0.03 0.04 0.03 0.02 0.01
0.00 0.00 0.00 0.00 0.00 0.00 0.00 0.00 0.00 0.00 0.00 0.00 0.00 0.00 0.00 0.00 0.00 0.00 0.00 0.00 0.00 0.01 0.01 0.02 0.02 0.02 0.03 0.02 0.03 0.03 0.03 0.03 0.03 0.03 0.04 0.04 0.02 0.01 0.02 0.03 0.03 0.02 0.02 0.02 0.01 0.02 0.03 0.02 0.01
0.00 0.00 0.00 0.00 0.00 0.00 0.00 0.00 0.00 0.00 0.00 0.00 0.00 0.00 0.00 0.00 0.00 0.01 0.01 0.01 0.01 0.02 0.02 0.02 0.02 0.02 0.02 0.02 0.03 0.02 0.03 0.03 0.04 0.04 0.05 0.06 0.03 0.02 0.02 0.03 0.03 0.02 0.01 0.01 0.01 0.02 0.03 0.03 0.01
0.00 0.00 0.00 0.00 0.00 0.00 0.00 0.00 0.00 0.00 0.00 0.00 0.00 0.00 0.00 0.00 0.01 0.02 0.02 0.01 0.01 0.02 0.02 0.02 0.02 0.02 0.02 0.02 0.02 0.01 0.02 0.02 0.03 0.04 0.05 0.05 0.05 0.04 0.05 0.04 0.03 0.02 0.02 0.02 0.02 0.02 0.02 0.03 0.03
0.00 0.00 0.00 0.00 0.00 0.00 0.00 0.00 0.00 0.00 0.00 0.00 0.00 0.00 0.00 0.00 0.01 0.01 0.01 0.01 0.01 0.01 0.01 0.02 0.02 0.02 0.02 0.01 0.01 0.01 0.02 0.03 0.04 0.05 0.08 0.08 0.07 0.06 0.05 0.05 0.05 0.03 0.03 0.04 0.04 0.03 0.03 0.04 0.04
0.00 0.00 0.00 0.00 0.00 0.00 0.00 0.00 0.01 0.00 0.01 0.01 0.01 0.01 0.01 0.01 0.01 0.01 0.01 0.01 0.01 0.01 0.02 0.02 0.02 0.01 0.01 0.01 0.01 0.01 0.03 0.03 0.03 0.04 0.07 0.08 0.07 0.07 0.06 0.06 0.05 0.04 0.04 0.04 0.05 0.05 0.06 0.05 0.04
0.00 0.00 0.00 0.00 0.00 0.00 0.00 0.00 0.01 0.02 0.01 0.01 0.02 0.02 0.02 0.02 0.01 0.01 0.01 0.01 0.01 0.01 0.01 0.02 0.03 0.02 0.02 0.02 0.02 0.02 0.02 0.02 0.03 0.04 0.05 0.07 0.07 0.07 0.07 0.06 0.06 0.05 0.04 0.03 0.02 0.04 0.05 0.05 0.05
0.00 0.00 0.00 0.00 0.00 0.00 0.00 0.00 0.01 0.02 0.02 0.01 0.01 0.01 0.01 0.01 0.01 0.01 0.01 0.01 0.01 0.01 0.01 0.02 0.03 0.02 0.03 0.04 0.03 0.03 0.02 0.02 0.04 0.05 0.05 0.08 0.08 0.07 0.07 0.06 0.06 0.06 0.06 0.03 0.03 0.04 0.04 0.03 0.04
0.00 0.00 0.00 0.00 0.00 0.00 0.00 0.00 0.00 0.01 0.01 0.02 0.01 0.00 0.01 0.02 0.02 0.02 0.01 0.01 0.01 0.01 0.01 0.02 0.02 0.02 0.03 0.04 0.04 0.04 0.03 0.03 0.05 0.05 0.04 0.04 0.05 0.06 0.07 0.07 0.06 0.06 0.06 0.06 0.04 0.02 0.02 0.03 0.04
0.00 0.00 0.00 0.00 0.00 0.00 0.00 0.00 0.00 0.00 0.01 0.01 0.01 0.01 0.01 0.02 0.02 0.02 0.02 0.02 0.02 0.02 0.02 0.02 0.03 0.03 0.03 0.03 0.03 0.03 0.03 0.03 0.04 0.04 0.05 0.06 0.07 0.07 0.08 0.10 0.07 0.05 0.05 0.05 0.04 0.04 0.04 0.03 0.05
0.00 0.00 0.00 0.00 0.00 0.00 0.00 0.00 0.00 0.00 0.01 0.01 0.01 0.01 0.01 0.01 0.02 0.02 0.03 0.03 0.02 0.04 0.06 0.03 0.03 0.03 0.03 0.03 0.03 0.03 0.02 0.02 0.03 0.04 0.05 0.06 0.07 0.06 0.07 0.08 0.06 0.04 0.02 0.03 0.03 0.03 0.03 0.03 0.04
0.00 0.00 0.00 0.00 0.00 0.00 0.00 0.00 0.00 0.01 0.01 0.01 0.00 0.00 0.01 0.01 0.02 0.03 0.02 0.03 0.02 0.04 0.03 0.03 0.03 0.03 0.03 0.04 0.04 0.03 0.02 0.03 0.03 0.01 0.02 0.03 0.04 0.05 0.06 0.08 0.04 0.03 0.03 0.03 0.02 0.03 0.03 0.03 0.04
0.00 0.00 0.00 0.00 0.00 0.00 0.00 0.00 0.00 0.00 0.00 0.00 0.00 0.00 0.00 0.01 0.02 0.02 0.02 0.04 0.03 0.04 0.03 0.03 0.03 0.03 0.03 0.04 0.04 0.02 0.02 0.03 0.02 0.01 0.01 0.02 0.04 0.05 0.06 0.06 0.02 0.01 0.02 0.03 0.03 0.03 0.03 0.03 0.03
0.00 0.00 0.00 0.01 0.01 0.00 0.00 0.00 0.00 0.00 0.00 0.00 0.00 0.00 0.01 0.01 0.01 0.01 0.02 0.04 0.04 0.03 0.03 0.03 0.03 0.02 0.02 0.02 0.02 0.02 0.01 0.01 0.01 0.02 0.02 0.02 0.02 0.03 0.02 0.01 0.02 0.01 0.01 0.03 0.03 0.03 0.04 0.04 0.03
0.00 0.00 0.00 0.01 0.00 0.00 0.00 0.00 0.00 0.00 0.00 0.00 0.00 0.00 0.01 0.01 0.01 0.01 0.01 0.02 0.02 0.02 0.03 0.02 0.01 0.01 0.02 0.02 0.01 0.01 0.01 0.00 0.00 0.01 0.02 0.02 0.01 0.01 0.01 0.01 0.01 0.01 0.01 0.03 0.03 0.03 0.04 0.04 0.03
0.00 0.00 0.00 0.00 0.00 0.00 0.00 0.00 0.00 0.00 0.00 0.00 0.00 0.00 0.00 0.01 0.01 0.01 0.01 0.01 0.02 0.02 0.03 0.01 0.01 0.02 0.02 0.01 0.01 0.00 0.01 0.01 0.01 0.02 0.02 0.01 0.01 0.00 0.01 0.02 0.01 0.02 0.02 0.03 0.03 0.03 0.03 0.02 0.03
0.00 0.00 0.00 0.00 0.00 0.00 0.00 0.00 0.00 0.00 0.00 0.00 0.01 0.00 0.01 0.01 0.01 0.02 0.01 0.01 0.01 0.01 0.01 0.01 0.02 0.05 0.04 0.01 0.01 0.00 0.02 0.02 0.01 0.01 0.02 0.01 0.01 0.01 0.01 0.01 0.01 0.02 0.02 0.02 0.03 0.03 0.04 0.05 0.05
0.00 0.00 0.00 0.00 0.00 0.00 0.00 0.00 0.00 0.00 0.01 0.01 0.01 0.01 0.02 0.02 0.02 0.02 0.01 0.01 0.01 0.00 0.01 0.02 0.04 0.05 0.03 0.01 0.01 0.01 0.02 0.03 0.02 0.01 0.01 0.01 0.01 0.01 0.01 0.01 0.02 0.03 0.04 0.05 0.05 0.04 0.03 0.04 0.04
0.00 0.00 0.00 0.00 0.00 0.00 0.00 0.00 0.00 0.00 0.00 0.01 0.01 0.02 0.02 0.01 0.01 0.01 0.01 0.01 0.01 0.01 0.01 0.02 0.03 0.02 0.02 0.01 0.01 0.02 0.02 0.02 0.02 0.02 0.02 0.02 0.01 0.00 0.00 0.01 0.02 0.03 0.04 0.05 0.06 0.04 0.04 0.04 0.04
0.00 0.00 0.00 0.00 0.00 0.00 0.00 0.00 0.00 0.00 0.00 0.00 0.01 0.01 0.01 0.01 0.01 0.01 0.01 0.01 0.00 0.01 0.01 0.01 0.01 0.01 0.00 0.01 0.01 0.01 0.01 0.01 0.02 0.03 0.02 0.01 0.01 0.01 0.01 0.02 0.02 0.03 0.03 0.03 0.04 0.03 0.03 0.03 0.03
MSLP
1007.35 1008.51 1009.96 1011.50 1012.92 1014.07 1014.84 1015.19 1015.20 1014.96 1014.66 1014.41 1014.32 1014.40 1014.62 1014.90 1015.14 1015.25 1015.17 1014.92 1014.55 1014.12 1013.71 1013.40 1013.21 1013.13 1013.13 1013.15 1013.15 1013.10 1013.00 1012.86 1012.72 1012.62 1012.58 1012.60 1012.67 1012.76 1012.85 1012.90 1012.92 1012.91 1012.89 1012.89 1012.93 1013.02 1013.16 1013.34 1013.54
1007.93 1009.32 1010.92 1012.51 1013.90 1014.92 1015.49 1015.61 1015.38 1014.94 1014.47 1014.11 1013.95 1014.02 1014.26 1014.58 1014.87 1015.03 1015.01 1014.81 1014.48 1014.11 1013.75 1013.49 1013.34 1013.30 1013.33 1013.38 1013.41 1013.39 1013.32 1013.23 1013.14 1013.09 1013.09 1013.14 1013.23 1013.32 1013.39 1013.42 1013.41 1013.37 1013.33 1013.33 1013.36 1013.46 1013.61 1013.79 1013.98
1008.70 1010.26 1011.93 1013.51 1014.79 1015.64 1016.00 1015.90 1015.47 1014.87 1014.29 1013.88 1013.72 1013.80 1014.08 1014.43 1014.74 1014.92 1014.91 1014.73 1014.43 1014.09 1013.78 1013.56 1013.47 1013.48 1013.56 1013.65 1013.72 1013.73 1013.69 1013.63 1013.57 1013.54 1013.56 1013.63 1013.71 1013.79 1013.84 1013.85 1013.82 1013.78 1013.75 1013.75 1013.80 1013.92 1014.08 1014.26 1014.46
1009.60 1011.25 1012.93 1014.42 1015.55 1016.19 1016.34 1016.05 1015.47 1014.79 1014.18 1013.78 1013.65 1013.79 1014.10 1014.47 1014.79 1014.95 1014.93 1014.74 1014.44 1014.12 1013.85 1013.68 1013.64 1013.71 1013.84 1013.97 1014.06 1014.10 1014.08 1014.04 1013.99 1013.97 1013.99 1014.05 1014.12 1014.19 1014.22 1014.23 1014.20 1014.17 1014.15 1014.18 1014.27 1014.41 1014.59 1014.79 1014.99
1010.52 1012.19 1013.80 1015.15 1016.09 1016.53 1016.50 1016.07 1015.42 1014.72 1014.15 1013.82 1013.77 1013.97 1014.32 1014.71 1015.00 1015.14 1015.08 1014.86 1014.56 1014.24 1014.01 1013.89 1013.90 1014.01 1014.18 1014.33 1014.44 1014.49 1014.48 1014.43 1014.38 1014.35 1014.37 1014.42 1014.48 1014.54 1014.58 1014.59 1014.57 1014.57 1014.58 1014.65 1014.76 1014.93 1015.12 1015.33 1015.52
1011.36 1012.97 1014.44 1015.61 1016.36 1016.62 1016.45 1015.96 1015.31 1014.67 1014.20 1013.99 1014.05 1014.33 1014.72 1015.10 1015.37 1015.46 1015.35 1015.10 1014.79 1014.49 1014.28 1014.20 1014.25 1014.40 1014.58 1014.74 1014.85 1014.88 1014.85 1014.79 1014.74 1014.71 1014.73 1014.77 1014.84 1014.91 1014.95 1014.97 1014.98 1014.99 1015.03 1015.12 1015.26 1015.44 1015.64 1015.84 1016.02
1012.01 1013.50 1014.80 1015.77 1016.33 1016.46 1016.21 1015.72 1015.14 1014.63 1014.31 1014.25 1014.43 1014.79 1015.21 1015.59 1015.82 1015.85 1015.71 1015.43 1015.11 1014.83 1014.65 1014.61 1014.69 1014.84 1015.02 1015.17 1015.25 1015.26 1015.21 1015.14 1015.08 1015.06 1015.08 1015.15 1015.23 1015.31 1015.36 1015.40 1015.42 1015.44 1015.49 1015.59 1015.72 1015.90 1016.08 1016.26 1016.41
1012.43 1013.76 1014.86 1015.64 1016.04 1016.07 1015.81 1015.38 1014.92 1014.58 1014.44 1014.54 1014.84 1015.27 1015.71 1016.07 1016.26 1016.25 1016.08 1015.80 1015.49 1015.24 1015.09 1015.08 1015.17 1015.33 1015.48 1015.60 1015.64 1015.62 1015.55 1015.47 1015.41 1015.41 1015.46 1015.55 1015.66 1015.76 1015.83 1015.86 1015.88 1015.89 1015.93 1016.00 1016.11 1016.26 1016.41 1016.55 1016.68
1012.62 1013.77 1014.68 1015.29 1015.56 1015.54 1015.31 1014.98 1014.68 1014.53 1014.57 1014.82 1015.22 1015.70 1016.15 1016.48 1016.63 1016.59 1016.40 1016.13 1015.85 1015.64 1015.54 1015.55 1015.66 1015.80 1015.93 1016.00 1016.01 1015.95 1015.86 1015.78 1015.75 1015.78 1015.87 1016.00 1016.13 1016.25 1016.32 1016.35 1016.34 1016.32 1016.32 1016.35 1016.41 1016.51 1016.62 1016.73 1016.82
1012.67 1013.63 1014.37 1014.82 1015.01 1014.97 1014.80 1014.60 1014.47 1014.48 1014.69 1015.05 1015.53 1016.03 1016.47 1016.76 1016.88 1016.82 1016.64 1016.39 1016.16 1016.00 1015.94 1015.98 1016.09 1016.22 1016.32 1016.36 1016.33 1016.25 1016.16 1016.09 1016.09 1016.15 1016.29 1016.45 1016.61 1016.74 1016.81 1016.81 1016.77 1016.70 1016.64 1016.61 1016.62 1016.67 1016.74 1016.81 1016.87
1012.67 1013.47 1014.05 1014.39 1014.51 1014.49 1014.39 1014.31 1014.32 1014.49 1014.81 1015.25 1015.76 1016.25 1016.66 1016.92 1017.00 1016.93 1016.77 1016.56 1016.38 1016.27 1016.26 1016.33 1016.45 1016.56 1016.64 1016.65 1016.60 1016.51 1016.42 1016.38 1016.41 1016.51 1016.68 1016.87 1017.06 1017.19 1017.24 1017.21 1017.12 1017.01 1016.89 1016.81 1016.77 1016.77 1016.81 1016.86 1016.90
1012.75 1013.41 1013.86 1014.11 1014.20 1014.19 1014.16 1014.18 1014.30 1014.56 1014.95 1015.42 1015.93 1016.39 1016.75 1016.96 1017.02 1016.96 1016.81 1016.65 1016.52 1016.46 1016.49 1016.58 1016.70 1016.81 1016.87 1016.87 1016.81 1016.73 1016.65 1016.63 1016.69 1016.82 1017.01 1017.22 1017.41 1017.53 1017.57 1017.51 1017.39 1017.24 1017.08 1016.96 1016.88 1016.86 1016.88 1016.91 1016.95
1012.99 1013.53 1013.88 1014.06 1014.13 1014.14 1014.16 1014.25 1014.44 1014.74 1015.14 1015.60 1016.07 1016.48 1016.78 1016.96 1017.00 1016.94 1016.82 1016.69 1016.60 1016.58 1016.63 1016.74 1016.86 1016.96 1017.02 1017.02 1016.97 1016.90 1016.84 1016.84 1016.91 1017.05 1017.25 1017.45 1017.63 1017.74 1017.76 1017.69 1017.56 1017.39 1017.21 1017.08 1016.99 1016.96 1016.98 1017.01 1017.06
1013.42 1013.86 1014.14 1014.27 1014.32 1014.35 1014.40 1014.51 1014.72 1015.02 1015.39 1015.81 1016.21 1016.56 1016.82 1016.96 1017.00 1016.95 1016.85 1016.75 1016.68 1016.68 1016.73 1016.83 1016.94 1017.04 1017.10 1017.11 1017.08 1017.03 1017.00 1017.01 1017.07 1017.20 1017.37 1017.55 1017.71 1017.80 1017.82 1017.75 1017.62 1017.46 1017.31 1017.18 1017.11 1017.09 1017.11 1017.16 1017.20
1013.99 1014.36 1014.57 1014.68 1014.72 1014.75 1014.82 1014.93 1015.12 1015.38 1015.69 1016.03 1016.36 1016.65 1016.87 1017.00 1017.05 1017.02 1016.94 1016.86 1016.80 1016.78 1016.81 1016.88 1016.98 1017.08 1017.14 1017.18 1017.18 1017.15 1017.13 1017.14 1017.19 1017.28 1017.41 1017.55 1017.67 1017.74 1017.76 1017.71 1017.61 1017.49 1017.37 1017.28 1017.23 1017.23 1017.26 1017.31 1017.36
1014.61 1014.91 1015.09 1015.18 1015.23 1015.28 1015.34 1015.43 1015.57 1015.76 1015.99 1016.25 1016.51 1016.75 1016.95 1017.09 1017.16 1017.16 1017.11 1017.03 1016.96 1016.91 1016.90 1016.94 1017.01 1017.10 1017.18 1017.24 1017.27 1017.28 1017.27 1017.27 1017.29 1017.33 1017.40 1017.48 1017.55 1017.61 1017.63 1017.61 1017.55 1017.48 1017.41 1017.36 1017.33 1017.35 1017.38 1017.43 1017.47
1015.15 1015.40 1015.57 1015.69 1015.77 1015.84 1015.90 1015.97 1016.04 1016.14 1016.27 1016.43 1016.62 1016.83 1017.03 1017.19 1017.30 1017.34 1017.32 1017.25 1017.16 1017.08 1017.02 1017.01 1017.05 1017.12 1017.22 1017.31 1017.39 1017.43 1017.44 1017.43 1017.41 1017.39 1017.39 1017.40 1017.43 1017.46 1017.48 1017.49 1017.49 1017.47 1017.44 1017.42 1017.41 1017.43 1017.45 1017.48 1017.51
1015.50 1015.75 1015.95 1016.12 1016.27 1016.39 1016.46 1016.49 1016.49 1016.48 1016.49 1016.55 1016.67 1016.84 1017.04 1017.25 1017.42 1017.52 1017.54 1017.49 1017.38 1017.26 1017.15 1017.09 1017.10 1017.17 1017.29 1017.42 1017.55 1017.63 1017.67 1017.65 1017.59 1017.51 1017.43 1017.37 1017.34 1017.35 1017.37 1017.41 1017.44 1017.46 1017.47 1017.47 1017.46 1017.45 1017.45 1017.45 1017.45
1015.63 1015.91 1016.19 1016.48 1016.73 1016.92 1017.02 1017.01 1016.92 1016.79 1016.67 1016.60 1016.63 1016.76 1016.97 1017.21 1017.45 1017.62 1017.70 1017.68 1017.57 1017.42 1017.27 1017.17 1017.16 1017.23 1017.38 1017.56 1017.74 1017.88 1017.94 1017.92 1017.83 1017.69 1017.55 1017.42 1017.34 1017.31 1017.33 1017.38 1017.43 1017.48 1017.51 1017.51 1017.48 1017.44 1017.39 1017.35 1017.32
1015.56 1015.92 1016.35 1016.80 1017.20 1017.49 1017.62 1017.58 1017.39 1017.10 1016.81 1016.59 1016.50 1016.56 1016.76 1017.05 1017.35 1017.60 1017.75 1017.78 1017.69 1017.54 1017.37 1017.25 1017.23 1017.31 1017.49 1017.72 1017.96 1018.14 1018.24 1018.23 1018.11 1017.94 1017.73 1017.55 1017.41 1017.35 1017.35 1017.41 1017.48 1017.53 1017.56 1017.54 1017.48 1017.40 1017.30 1017.22 1017.15
1015.37 1015.89 1016.52 1017.17 1017.76 1018.17 1018.33 1018.24 1017.92 1017.46 1016.96 1016.55 1016.31 1016.27 1016.44 1016.74 1017.10 1017.44 1017.67 1017.76 1017.72 1017.59 1017.43 1017.31 1017.29 1017.39 1017.60 1017.88 1018.17 1018.40 1018.53 1018.53 1018.41 1018.20 1017.95 1017.72 1017.54 1017.44 1017.43 1017.48 1017.55 1017.60 1017.62 1017.58 1017.49 1017.36 1017.21 1017.09 1016.99
1015.20 1015.92 1016.80 1017.70 1018.47 1019.00 1019.20 1019.03 1018.56 1017.89 1017.16 1016.53 1016.10 1015.93 1016.02 1016.32 1016.73 1017.15 1017.47 1017.64 1017.67 1017.58 1017.45 1017.35 1017.34 1017.45 1017.69 1018.00 1018.33 1018.60 1018.76 1018.78 1018.65 1018.42 1018.15 1017.87 1017.66 1017.54 1017.51 1017.54 1017.61 1017.67 1017.68 1017.62 1017.50 1017.34 1017.15 1016.99 1016.88
1015.17 1016.13 1017.27 1018.40 1019.37 1020.00 1020.20 1019.95 1019.31 1018.40 1017.42 1016.54 1015.90 1015.58 1015.58 1015.86 1016.30 1016.78 1017.19 1017.46 1017.56 1017.53 1017.44 1017.35 1017.35 1017.48 1017.72 1018.05 1018.40 1018.70 1018.88 1018.91 1018.79 1018.55 1018.25 1017.96 1017.73 1017.58 1017.54 1017.57 1017.64 1017.70 1017.71 1017.65 1017.52 1017.34 1017.14 1016.96 1016.82
1015.35 1016.55 1017.92 1019.27 1020.38 1021.09 1021.27 1020.92 1020.10 1018.96 1017.73 1016.60 1015.75 1015.27 1015.17 1015.41 1015.87 1016.40 1016.89 1017.24 1017.42 1017.46 1017.40 1017.34 1017.35 1017.46 1017.70 1018.02 1018.37 1018.66 1018.85 1018.89 1018.77 1018.54 1018.24 1017.94 1017.70 1017.55 1017.50 1017.54 1017.61 1017.69 1017.71 1017.67 1017.55 1017.37 1017.17 1016.98 1016.83
1015.73 1017.12 1018.69 1020.19 1021.40 1022.13 1022.27 1021.80 1020.81 1019.47 1018.03 1016.69 1015.66 1015.03 1014.85 1015.04 1015.50 1016.08 1016.62 1017.04 1017.29 1017.38 1017.36 1017.31 1017.30 1017.40 1017.61 1017.90 1018.22 1018.50 1018.68 1018.72 1018.61 1018.38 1018.09 1017.80 1017.56 1017.42 1017.38 1017.43 1017.53 1017.62 1017.68 1017.67 1017.58 1017.43 1017.24 1017.05 1016.90
1016.23 1017.76 1019.43 1021.01 1022.25 1022.96 1023.03 1022.45 1021.33 1019.84 1018.24 1016.77 1015.61 1014.89 1014.63 1014.79 1015.25 1015.84 1016.42 1016.89 1017.18 1017.30 1017.30 1017.25 1017.22 1017.28 1017.44 1017.69 1017.97 1018.22 1018.38 1018.42 1018.32 1018.11 1017.84 1017.58 1017.36 1017.23 1017.21 1017.28 1017.40 1017.53 1017.63 1017.66 1017.62 1017.50 1017.35 1017.17 1017.00
1016.73 1018.32 1020.01 1021.57 1022.76 1023.40 1023.39 1022.74 1021.53 1019.97 1018.31 1016.78 1015.57 1014.81 1014.53 1014.67 1015.12 1015.71 1016.31 1016.79 1017.09 1017.22 1017.22 1017.15 1017.09 1017.11 1017.22 1017.41 1017.64 1017.86 1018.01 1018.04 1017.96 1017.79 1017.55 1017.32 1017.14 1017.04 1017.04 1017.14 1017.28 1017.44 1017.58 1017.66 1017.66 1017.60 1017.48 1017.32 1017.16
1017.14 1018.67 1020.28 1021.73 1022.81 1023.35 1023.26 1022.56 1021.34 1019.80 1018.18 1016.69 1015.53 1014.80 1014.53 1014.67 1015.10 1015.68 1016.25 1016.72 1017.01 1017.12 1017.10 1017.00 1016.91 1016.88 1016.94 1017.09 1017.28 1017.47 1017.61 1017.65 1017.60 1017.47 1017.28 1017.10 1016.96 1016.89 1016.92 1017.04 1017.20 1017.39 1017.56 1017.68 1017.73 1017.72 1017.64 1017.51 1017.35
1017.34 1018.74 1020.17 1021.44 1022.35 1022.76 1022.60 1021.89 1020.74 1019.31 1017.83 1016.49 1015.46 1014.82 1014.61 1014.77 1015.18 1015.72 1016.24 1016.65 1016.90 1016.98 1016.92 1016.80 1016.68 1016.63 1016.65 1016.76 1016.93 1017.10 1017.24 1017.31 1017.30 1017.22 1017.09 1016.96 1016.86 1016.84 1016.89 1017.01 1017.19 1017.39 1017.58 1017.73 1017.82 1017.84 1017.80 1017.71 1017.57
1017.33 1018.52 1019.71 1020.74 1021.44 1021.71 1021.50 1020.84 1019.81 1018.57 1017.31 1016.19 1015.36 1014.87 1014.74 1014.92 1015.31 1015.79 1016.24 1016.57 1016.76 1016.79 1016.70 1016.56 1016.43 1016.36 1016.38 1016.47 1016.63 1016.81 1016.96 1017.06 1017.09 1017.06 1016.99 1016.92 1016.87 1016.87 1016.94 1017.07 1017.24 1017.44 1017.63 1017.78 1017.90 1017.96 1017.96 1017.90 1017.80
Thickness
5841 5838 5833 5819 5792 5763 5752 5761 5769 5766 5765 5771 5774 5767 5757 5748 5743 5738 5755 5762 5762 5761 5759 5759 5758 5757 5757 5757 5757 5758 5759 5759 5759 5759 5759 5759 5759 5760 5760 5759 5759 5758 5758 5757 5756 5756 5755 5755 5754
5844 5839 5827 5807 5771 5744 5749 5764 5765 5768 5773 5777 5774 5768 5758 5752 5756 5755 5758 5762 5762 5761 5759 5758 5757 5756 5756 5755 5755 5756 5756 5757 5757 5757 5757 5758 5758 5758 5757 5757 5757 5757 5756 5756 5755 5754 5754 5753 5752
5846 5841 5816 5791 5765 5750 5755 5768 5770 5776 5782 5779 5771 5768 5760 5754 5758 5759 5762 5764 5762 5760 5758 5757 5756 5755 5755 5754 5754 5754 5754 5755 5755 5755 5755 5756 5755 5755 5755 5755 5755 5755 5755 5754 5753 5753 5752 5752 5751
5844 5828 5810 5783 5768 5772 5774 5776 5779 5777 5779 5779 5772 5762 5763 5768 5766 5765 5766 5764 5761 5759 5758 5756 5756 5755 5754 5753 5753 5753 5753 5753 5753 5753 5754 5754 5754 5754 5753 5754 5754 5753 5753 5753 5752 5752 5751 5750 5749
5840 5815 5788 5770 5774 5782 5786 5786 5785 5777 5774 5774 5770 5758 5756 5767 5771 5768 5766 5763 5760 5758 5757 5756 5755 5754 5753 5753 5752 5752 5751 5751 5752 5752 5752 5752 5752 5752 5752 5752 5752 5752 5751 5751 5751 5750 5750 5749 5748
5823 5805 5773 5762 5774 5784 5788 5791 5785 5777 5774 5774 5769 5758 5755 5767 5768 5766 5765 5762 5759 5757 5756 5755 5754 5754 5753 5752 5751 5751 5751 5751 5751 5751 5751 5751 5751 5751 5751 5751 5750 5750 5750 5749 5749 5749 5748 5747 5747
5816 5795 5776 5774 5774 5779 5788 5793 5784 5778 5774 5775 5774 5757 5757 5763 5767 5766 5764 5761 5758 5756 5755 5754 5753 5753 5752 5752 5751 5750 5749 5749 5749 5749 5749 5750 5750 5749 5749 5750 5749 5749 5748 5748 5748 5748 5747 5747 5746
5828 5801 5782 5777 5776 5780 5794 5794 5791 5785 5780 5787 5781 5761 5756 5765 5768 5766 5762 5759 5758 5756 5754 5753 5752 5752 5751 5751 5750 5750 5749 5749 5749 5748 5748 5748 5748 5748 5748 5748 5748 5748 5747 5747 5747 5747 5746 5746 5746
5834 5795 5777 5782 5782 5788 5798 5793 5794 5798 5789 5787 5786 5778 5776 5774 5769 5763 5759 5756 5755 5755 5754 5753 5752 5751 5751 5751 5750 5749 5749 5748 5748 5748 5748 5747 5747 5747 5747 5747 5747 5747 5747 5747 5747 5746 5746 5746 5746
5821 5790 5794 5805 5804 5801 5801 5797 5795 5790 5783 5780 5780 5780 5779 5773 5767 5761 5757 5755 5754 5754 5754 5754 5753 5752 5751 5751 5750 5749 5749 5748 5748 5748 5747 5747 5746 5746 5746 5746 5747 5747 5747 5747 5746 5746 5746 5746 5746
5823 5807 5813 5817 5818 5813 5805 5800 5801 5788 5778 5781 5779 5777 5776 5771 5766 5762 5760 5758 5757 5757 5756 5755 5754 5753 5752 5751 5750 5749 5749 5748 5748 5747 5747 5746 5746 5746 5746 5746 5746 5746 5746 5746 5746 5746 5746 5745 5746
5824 5822 5825 5822 5823 5816 5807 5803 5798 5793 5792 5798 5793 5787 5779 5772 5768 5765 5762 5761 5760 5758 5758 5758 5756 5754 5753 5752 5751 5750 5749 5749 5748 5747 5747 5747 5746 5746 5746 5745 5745 5745 5745 5746 5746 5745 5745 5745 5745
5824 5823 5827 5826 5822 5817 5810 5803 5800 5797 5803 5802 5794 5786 5780 5775 5772 5771 5769 5766 5763 5760 5760 5759 5759 5756 5754 5753 5752 5751 5750 5749 5749 5748 5747 5747 5747 5746 5746 5745 5745 5746 5746 5746 5746 5745 5745 5745 5745
5826 5825 5823 5823 5821 5818 5807 5803 5800 5797 5803 5798 5792 5785 5782 5779 5776 5772 5770 5767 5765 5764 5763 5762 5761 5759 5757 5754 5753 5752 5751 5750 5749 5748 5748 5748 5747 5746 5746 5745 5745 5746 5746 5746 5745 5745 5745 5745 5745
5830 5818 5815 5816 5817 5814 5809 5793 5796 5802 5802 5795 5791 5787 5784 5782 5779 5776 5775 5772 5771 5769 5767 5765 5763 5761 5758 5756 5754 5752 5751 5750 5750 5749 5749 5748 5747 5746 5746 5745 5745 5746 5746 5746 5745 5745 5745 5744 5744
5819 5803 5793 5808 5813 5813 5801 5780 5798 5804 5800 5792 5790 5789 5785 5783 5783 5782 5780 5777 5775 5772 5770 5768 5767 5763 5760 5758 5756 5754 5752 5751 5750 5750 5749 5748 5748 5747 5746 5745 5745 5745 5746 5746 5745 5745 5744 5743 5743
5795 5785 5787 5799 5812 5810 5799 5787 5799 5805 5800 5792 5791 5790 5787 5784 5784 5784 5784 5781 5779 5776 5773 5769 5768 5765 5762 5759 5757 5755 5753 5752 5751 5750 5750 5749 5748 5747 5747 5746 5746 5746 5746 5746 5746 5745 5743 5742 5742
5784 5785 5788 5791 5806 5805 5795 5792 5799 5804 5801 5796 5794 5792 5789 5786 5786 5788 5786 5785 5782 5779 5775 5772 5769 5767 5763 5760 5758 5755 5754 5753 5752 5750 5749 5749 5748 5747 5747 5747 5747 5746 5746 5745 5745 5744 5743 5742 5742
5801 5792 5789 5796 5810 5802 5793 5792 5797 5802 5800 5797 5794 5793 5790 5790 5793 5791 5789 5787 5783 5779 5776 5774 5770 5768 5764 5760 5757 5755 5753 5752 5751 5751 5750 5749 5748 5748 5747 5747 5747 5746 5746 5745 5745 5744 5742 5741 5741
5800 5791 5790 5796 5808 5801 5791 5791 5799 5802 5802 5803 5799 5796 5793 5791 5791 5790 5789 5787 5784 5781 5778 5775 5772 5769 5767 5764 5761 5758 5756 5753 5752 5751 5750 5749 5748 5748 5747 5747 5746 5746 5745 5745 5744 5743 5741 5741 5741
5798 5793 5792 5791 5797 5798 5792 5785 5792 5801 5805 5805 5805 5803 5799 5796 5793 5792 5790 5788 5786 5784 5782 5779 5775 5772 5769 5766 5763 5759 5756 5754 5751 5750 5750 5750 5749 5748 5748 5747 5747 5746 5746 5745 5744 5744 5742 5739 5739
5790 5805 5802 5796 5782 5770 5782 5759 5783 5792 5796 5801 5804 5804 5803 5802 5800 5796 5794 5790 5789 5788 5786 5782 5777 5774 5771 5768 5764 5759 5755 5751 5750 5750 5750 5750 5749 5748 5748 5748 5747 5747 5746 5745 5745 5744 5743 5741 5738
5800 5807 5799 5791 5777 5766 5771 5761 5772 5789 5789 5799 5807 5809 5809 5808 5805 5802 5799 5797 5794 5792 5788 5784 5779 5776 5773 5770 5766 5762 5757 5755 5753 5751 5750 5749 5749 5749 5748 5748 5747 5747 5746 5746 5745 5744 5743 5742 5740
5804 5792 5781 5769 5762 5749 5763 5758 5766 5782 5796 5805 5812 5813 5813 5812 5810 5807 5804 5800 5796 5794 5790 5786 5781 5777 5775 5771 5768 5764 5759 5756 5753 5751 5749 5749 5748 5748 5748 5747 5747 5747 5746 5745 5745 5744 5743 5742 5740
5794 5768 5742 5740 5731 5739 5760 5760 5770 5802 5811 5814 5816 5817 5818 5816 5812 5808 5804 5801 5798 5795 5792 5788 5783 5778 5775 5772 5769 5765 5762 5758 5755 5752 5750 5748 5747 5746 5747 5747 5747 5746 5746 5745 5744 5743 5742 5741 5739
5783 5772 5743 5730 5728 5737 5755 5756 5786 5813 5819 5823 5823 5822 5821 5817 5815 5812 5808 5805 5802 5798 5794 5790 5785 5780 5776 5773 5770 5767 5763 5760 5757 5754 5752 5750 5748 5747 5747 5746 5746 5745 5745 5744 5743 5741 5740 5739 5737
5775 5767 5769 5744 5737 5734 5745 5765 5793 5815 5816 5818 5819 5819 5819 5818 5817 5814 5811 5808 5805 5801 5797 5793 5787 5782 5778 5774 5771 5767 5764 5761 5758 5755 5753 5751 5749 5748 5746 5745 5744 5743 5743 5742 5741 5739 5737 5735 5733
5786 5769 5751 5738 5724 5726 5744 5757 5772 5799 5808 5813 5814 5815 5818 5819 5817 5816 5813 5810 5807 5804 5799 5794 5790 5785 5780 5775 5772 5768 5764 5761 5758 5755 5752 5750 5748 5747 5745 5744 5743 5741 5740 5739 5737 5735 5733 5732 5729
5769 5761 5748 5736 5738 5725 5729 5753 5797 5803 5810 5812 5814 5817 5818 5819 5818 5815 5814 5812 5808 5804 5799 5794 5790 5785 5780 5776 5772 5767 5764 5761 5758 5754 5752 5749 5747 5745 5743 5742 5740 5738 5737 5735 5733 5731 5729 5727 5725
5778 5765 5753 5742 5732 5731 5734 5757 5811 5811 5814 5814 5815 5818 5819 5819 5818 5815 5813 5810 5806 5802 5798 5794 5790 5785 5781 5776 5771 5767 5763 5759 5756 5753 5750 5748 5745 5743 5741 5739 5737 5735 5732 5730 5728 5726 5724 5722 5719